Warner Robins, GA

10:05 AM EST on February 27, 2017 (GMT -0500)
Robins Air Force Base

Weather History for KWRB - February, 2013

Change the Weather History Date:

Saturday, February 23, 2013

  Actual Average Record
Temperature  
Mean Temperature 45 °F -  
Max Temperature 48 °F 62 °F 78 °F (2012)
Min Temperature 42 °F 40 °F 27 °F (2009)
Degree Days  
Heating Degree Days 20    
Moisture  
Dew Point 44 °F    
Average Humidity 96    
Maximum Humidity 100    
Minimum Humidity 93    
Precipitation  
Precipitation 1.65 in - - ()
Sea Level Pressure  
Sea Level Pressure 29.93 in    
Wind  
Wind Speed 6 mph (NNE)    
Max Wind Speed 12 mph    
Max Gust Speed -    
Visibility 7 miles    
Events Rain , Thunderstorm    
Averages and records for this station are not official NWS values.
T = Trace of Precipitation, MM = Missing Value Source: NWS Daily Summary

Daily Weather History Graph

Daily Weather History Graph

Search for Another Location

Airport or City:

Trip Planner

Search our weather history database for the weather conditions in past years. The results will help you decide how hot, cold, wet, or windy it might be!

Date:

Astronomy

Feb. 23, 2013 Rise Set
Actual Time 7:08 AM EST 6:27 PM EST
Civil Twilight 6:43 AM EST 6:51 PM EST
Nautical Twilight 6:15 AM EST 7:20 PM EST
Astronomical Twilight 5:46 AM EST 7:49 PM EST
Moon 4:39 PM EST (2/23) 5:26 AM EST (2/23)
Length of Visible Light 12h 08m
Length of Day
11h 18m
Waxing Gibbous, 95% of the Moon is Illuminated
Feb 23
Waxing Gibbous
Feb 25
Full
Mar 4
Last Quarter
Mar 11
New
Mar 19
First Quarter

Hourly Weather History & Observations

Time (EST) Temp. Windchill Dew Point Humidity Pressure Visibility Wind Dir Wind Speed Gust Speed Precip Events Conditions
12:03 AM 44.6 °F 40.2 °F 42.8 °F 93% 30.04 in 10.0 mi NNW 8.1 mph - N/A   Overcast
12:10 AM 44.6 °F 39.7 °F 42.8 °F 93% 30.04 in 8.0 mi NNW 9.2 mph - N/A Rain Light Rain
12:15 AM 44.6 °F 39.2 °F 42.8 °F 93% 30.03 in 5.0 mi North 10.4 mph - N/A Rain Heavy Rain
12:28 AM 44.6 °F 40.2 °F 42.8 °F 93% 30.01 in 5.0 mi NNE 8.1 mph - N/A Rain Light Rain
12:36 AM 44.6 °F 39.7 °F 42.8 °F 93% 30.01 in 9.0 mi North 9.2 mph - N/A Rain Light Rain
12:42 AM 42.8 °F 37.5 °F 42.8 °F 100% 30.00 in 10.0 mi NNE 9.2 mph - N/A Rain Light Rain
12:58 AM 43.5 °F 38.3 °F 42.4 °F 96% 30.00 in 10.0 mi ENE 9.2 mph - 0.12 in Rain Light Rain
12:59 AM 42.8 °F 37.5 °F 42.8 °F 100% 29.98 in 10.0 mi ENE 9.2 mph - N/A   Overcast
1:05 AM 42.8 °F 39.3 °F 42.8 °F 100% 29.97 in 10.0 mi Variable 5.8 mph - N/A   Overcast
1:17 AM 42.8 °F 39.3 °F 42.8 °F 100% 29.98 in 10.0 mi East 5.8 mph - N/A Rain Light Rain
1:29 AM 42.8 °F 38.6 °F 42.8 °F 100% 29.98 in 7.0 mi North 6.9 mph - N/A Rain Light Rain
1:38 AM 42.8 °F 39.3 °F 42.8 °F 100% 30.00 in 7.0 mi North 5.8 mph - N/A Rain Rain
1:49 AM 42.8 °F 38.6 °F 42.8 °F 100% 30.00 in 5.0 mi NNW 6.9 mph - N/A Rain Heavy Rain
1:56 AM 42.8 °F 38.6 °F 42.8 °F 100% 29.99 in 5.0 mi North 6.9 mph - N/A Rain Heavy Rain
1:58 AM 43.5 °F 40.1 °F 42.3 °F 95% 30.00 in 5.0 mi North 5.8 mph - 0.10 in Rain Rain
2:05 AM 42.8 °F 40.1 °F 42.8 °F 100% 29.98 in 9.0 mi NNE 4.6 mph - N/A Rain Light Rain
2:29 AM 42.8 °F 39.3 °F 42.8 °F 100% 29.98 in 9.0 mi East 5.8 mph - N/A Rain Light Rain
2:46 AM 42.8 °F 38.6 °F 41.0 °F 93% 29.95 in 5.0 mi ENE 6.9 mph - N/A Rain Rain
2:52 AM 42.8 °F 40.1 °F 41.0 °F 93% 29.93 in 5.0 mi ENE 4.6 mph - N/A Rain Rain
2:53 AM 42.8 °F 40.1 °F 41.0 °F 93% 29.93 in 5.0 mi ENE 4.6 mph - N/A Rain Rain
2:58 AM 43.0 °F 39.5 °F 41.7 °F 95% 29.94 in 6.0 mi NE 5.8 mph - 0.15 in Rain Rain
3:00 AM 42.8 °F 38.6 °F 41.0 °F 93% 29.93 in 6.0 mi NE 6.9 mph - N/A Rain Rain
3:06 AM 42.8 °F 39.3 °F 41.0 °F 93% 29.94 in 6.0 mi NNE 5.8 mph - N/A Rain Rain
3:09 AM 42.8 °F 40.1 °F 41.0 °F 93% 29.94 in 6.0 mi NE 4.6 mph - N/A Rain Rain
3:24 AM 42.8 °F 38.6 °F 41.0 °F 93% 29.93 in 7.0 mi North 6.9 mph - N/A Rain Light Rain
3:26 AM 42.8 °F 38.6 °F 41.0 °F 93% 29.93 in 5.0 mi North 6.9 mph - N/A Rain , Thunderstorm Light Rain
3:28 AM 42.8 °F 39.3 °F 41.0 °F 93% 29.93 in 4.0 mi North 5.8 mph - N/A Rain , Thunderstorm Heavy Rain
3:32 AM 42.8 °F 38.6 °F 41.0 °F 93% 29.93 in 3.0 mi North 6.9 mph - N/A Rain , Thunderstorm Heavy Rain
3:33 AM 42.8 °F 38.6 °F 41.0 °F 93% 29.93 in 2.5 mi North 6.9 mph - N/A Rain , Thunderstorm Heavy Rain
3:38 AM 42.8 °F 38.6 °F 41.0 °F 93% 29.93 in 3.0 mi North 6.9 mph - N/A Rain , Thunderstorm Light Rain
3:43 AM 42.8 °F 38.6 °F 41.0 °F 93% 29.94 in 5.0 mi NNW 6.9 mph - N/A Rain , Thunderstorm Light Rain
3:44 AM 42.8 °F 39.3 °F 41.0 °F 93% 29.94 in 5.0 mi NNW 5.8 mph - N/A Rain , Thunderstorm Light Rain
3:45 AM 42.8 °F 39.3 °F 41.0 °F 93% 29.94 in 5.0 mi NNW 5.8 mph - N/A Rain , Thunderstorm Light Rain
3:47 AM 42.8 °F 39.3 °F 41.0 °F 93% 29.94 in 5.0 mi North 5.8 mph - N/A Rain , Thunderstorm Light Rain
3:54 AM 42.8 °F 39.3 °F 41.0 °F 93% 29.93 in 5.0 mi North 5.8 mph - N/A Rain Light Rain
3:58 AM 43.0 °F 41.3 °F 41.7 °F 95% 29.94 in 8.0 mi NE 3.5 mph - 0.19 in Rain Light Rain
4:04 AM 42.8 °F 40.1 °F 41.0 °F 93% 29.92 in 9.0 mi ENE 4.6 mph - N/A Rain Light Rain
4:07 AM 42.8 °F 40.1 °F 41.0 °F 93% 29.92 in 9.0 mi NE 4.6 mph - N/A Rain Light Rain
4:10 AM 42.8 °F 40.1 °F 41.0 °F 93% 29.92 in 10.0 mi NE 4.6 mph - N/A Rain Light Rain
4:13 AM 42.8 °F 41.1 °F 41.0 °F 93% 29.92 in 10.0 mi Variable 3.5 mph - N/A   Overcast
4:19 AM 42.8 °F 40.1 °F 41.0 °F 93% 29.92 in 10.0 mi NE 4.6 mph - N/A   Overcast
4:29 AM 42.8 °F 41.1 °F 41.0 °F 93% 29.93 in 10.0 mi Variable 3.5 mph - N/A   Overcast
4:30 AM 42.8 °F 41.1 °F 41.0 °F 93% 29.93 in 10.0 mi ENE 3.5 mph - N/A   Overcast
4:32 AM 42.8 °F 41.1 °F 41.0 °F 93% 29.93 in 10.0 mi Variable 3.5 mph - N/A Rain Light Rain
4:41 AM 42.8 °F 41.1 °F 41.0 °F 93% 29.92 in 10.0 mi Variable 3.5 mph - N/A   Overcast
4:46 AM 42.8 °F - 41.0 °F 93% 29.92 in 10.0 mi Variable 2.3 mph - N/A Rain Light Rain
4:51 AM 42.8 °F 39.3 °F 41.0 °F 93% 29.92 in 9.0 mi ENE 5.8 mph - N/A Rain Light Rain
4:58 AM 43.2 °F 39.7 °F 41.9 °F 95% 29.93 in 9.0 mi North 5.8 mph - 0.01 in Rain Light Rain
5:00 AM 42.8 °F 39.3 °F 41.0 °F 93% 29.92 in 9.0 mi North 5.8 mph - N/A Rain Light Rain
5:06 AM 42.8 °F 40.1 °F 41.0 °F 93% 29.92 in 9.0 mi NNE 4.6 mph - N/A Rain Light Rain
5:10 AM 42.8 °F 41.1 °F 41.0 °F 93% 29.92 in 4.0 mi North 3.5 mph - N/A Rain Light Rain
5:16 AM 42.8 °F - 41.0 °F 93% 29.92 in 3.0 mi NE 2.3 mph - N/A Rain Heavy Rain
5:17 AM 42.8 °F - 41.0 °F 93% 29.92 in 3.0 mi NE 2.3 mph - N/A Rain Rain
5:20 AM 42.8 °F 40.1 °F 41.0 °F 93% 29.92 in 3.0 mi NNE 4.6 mph - N/A Rain Rain
5:30 AM 42.8 °F 38.0 °F 42.8 °F 100% 29.93 in 5.0 mi NNW 8.1 mph - N/A Rain , Thunderstorm Thunderstorms and Rain
5:38 AM 42.8 °F 37.0 °F 42.8 °F 100% 29.95 in 3.0 mi NNW 10.4 mph - N/A Rain , Thunderstorm Heavy Thunderstorms and Rain
5:39 AM 42.8 °F 37.0 °F 42.8 °F 100% 29.95 in 2.5 mi NNW 10.4 mph - N/A Rain , Thunderstorm Heavy Thunderstorms and Rain
5:40 AM 42.8 °F 37.0 °F 42.8 °F 100% 29.95 in 2.0 mi NNW 10.4 mph - N/A Rain , Thunderstorm Heavy Thunderstorms and Rain
5:43 AM 42.8 °F 36.6 °F 42.8 °F 100% 29.95 in 1.8 mi NNW 11.5 mph - N/A Rain , Thunderstorm Heavy Thunderstorms and Rain
5:46 AM 42.8 °F 37.5 °F 42.8 °F 100% 29.95 in 1.5 mi NNW 9.2 mph - N/A Rain , Thunderstorm Heavy Thunderstorms and Rain
5:49 AM 42.8 °F 38.0 °F 42.8 °F 100% 29.96 in 1.8 mi NNW 8.1 mph - N/A Rain , Thunderstorm Heavy Thunderstorms and Rain
5:54 AM 42.8 °F 38.0 °F 42.8 °F 100% 29.96 in 2.0 mi NW 8.1 mph - N/A Rain , Thunderstorm Heavy Thunderstorms and Rain
5:56 AM 42.8 °F 38.0 °F 42.8 °F 100% 29.97 in 2.5 mi NNW 8.1 mph - N/A Rain , Thunderstorm Heavy Thunderstorms and Rain
5:57 AM 42.8 °F 38.6 °F 42.8 °F 100% 29.97 in 2.5 mi NNW 6.9 mph - N/A Rain Heavy Rain
5:58 AM 42.8 °F 39.3 °F 42.8 °F 100% 29.97 in 2.5 mi Variable 5.8 mph - 0.55 in Rain Heavy Rain
6:00 AM 42.8 °F 38.6 °F 42.8 °F 100% 29.97 in 3.0 mi North 6.9 mph - N/A Rain Heavy Rain
6:33 AM 42.8 °F 38.0 °F 41.0 °F 93% 29.95 in 3.0 mi North 8.1 mph - N/A Rain Rain
6:42 AM 42.8 °F 39.3 °F 41.0 °F 93% 29.95 in 5.0 mi NNE 5.8 mph - N/A Rain Rain
6:49 AM 42.8 °F 39.3 °F 41.0 °F 93% 29.95 in 9.0 mi North 5.8 mph - N/A Rain Light Rain
6:58 AM 42.8 °F 38.6 °F 41.5 °F 95% 29.96 in 10.0 mi NNW 6.9 mph - 0.35 in Rain Light Rain
7:01 AM 42.8 °F 41.1 °F 41.0 °F 93% 29.95 in 10.0 mi North 3.5 mph - N/A Rain Light Rain
7:19 AM 42.8 °F 41.1 °F 41.0 °F 93% 29.94 in 10.0 mi ENE 3.5 mph - N/A Rain Light Rain
7:33 AM 42.8 °F 41.1 °F 41.0 °F 93% 29.94 in 10.0 mi ENE 3.5 mph - N/A   Overcast
7:43 AM 42.8 °F 41.1 °F 41.0 °F 93% 29.94 in 10.0 mi ENE 3.5 mph - N/A   Overcast
7:58 AM 43.2 °F 41.5 °F 41.9 °F 95% 29.93 in 10.0 mi East 3.5 mph - 0.02 in   Overcast
8:07 AM 42.8 °F 41.1 °F 41.0 °F 93% 29.91 in 10.0 mi East 3.5 mph - N/A Rain Light Rain
8:30 AM 42.8 °F - 42.8 °F 100% 29.95 in 7.0 mi Variable 2.3 mph - N/A Rain Light Rain
8:38 AM 42.8 °F 39.3 °F 42.8 °F 100% 29.95 in 7.0 mi SE 5.8 mph - N/A Rain Rain
8:39 AM 42.8 °F 39.3 °F 42.8 °F 100% 29.94 in 7.0 mi ESE 5.8 mph - N/A Rain Rain
8:58 AM 43.5 °F - 42.1 °F 95% 29.96 in 5.0 mi SE 2.3 mph - 0.11 in Rain Light Rain
9:07 AM 42.8 °F 38.6 °F 42.8 °F 100% 29.93 in 10.0 mi SE 6.9 mph - N/A Rain Light Rain
9:09 AM 44.6 °F 42.2 °F 42.8 °F 93% 29.92 in 10.0 mi ESE 4.6 mph - N/A Rain Light Rain
9:15 AM 44.6 °F - 42.8 °F 93% 29.92 in 10.0 mi Variable 1.2 mph - N/A Rain Light Rain
9:16 AM 44.6 °F - 42.8 °F 93% 29.93 in 10.0 mi Calm Calm - N/A Rain Light Rain
9:24 AM 44.6 °F - 42.8 °F 93% 29.95 in 10.0 mi Calm Calm - N/A   Mostly Cloudy
9:32 AM 44.6 °F - 42.8 °F 93% 29.93 in 10.0 mi Variable 2.3 mph - N/A Rain Light Rain
9:42 AM 44.6 °F 43.1 °F 42.8 °F 93% 29.94 in 10.0 mi North 3.5 mph - N/A   Overcast
9:53 AM 44.6 °F 43.1 °F 42.8 °F 93% 29.95 in 10.0 mi Variable 3.5 mph - N/A Rain Light Rain
9:58 AM 44.6 °F 43.1 °F 42.8 °F 93% 29.96 in 10.0 mi NNW 3.5 mph - 0.01 in Rain Light Rain
10:08 AM 44.6 °F 41.4 °F 42.8 °F 93% 29.94 in 10.0 mi North 5.8 mph - N/A Rain Light Rain
10:24 AM 44.6 °F 40.7 °F 42.8 °F 93% 29.95 in 10.0 mi NNW 6.9 mph - N/A   Overcast
10:47 AM 44.6 °F 42.2 °F 44.6 °F 100% 29.96 in 10.0 mi NNW 4.6 mph - N/A Rain Light Rain
10:58 AM 45.1 °F 42.0 °F 43.9 °F 95% 29.94 in 8.0 mi North 5.8 mph - 0.01 in Rain Light Rain
11:20 AM 44.6 °F 40.7 °F 44.6 °F 100% 29.93 in 10.0 mi NNE 6.9 mph - N/A   Overcast
11:38 AM 44.6 °F 43.1 °F 44.6 °F 100% 29.97 in 10.0 mi NNW 3.5 mph - N/A   Overcast
11:58 AM 45.5 °F 43.2 °F 44.1 °F 95% 29.95 in 10.0 mi North 4.6 mph - 0.02 in   Overcast
12:05 PM 44.6 °F 40.2 °F 44.6 °F 100% 29.93 in 10.0 mi North 8.1 mph - N/A   Overcast
12:58 PM 46.2 °F 42.7 °F 44.8 °F 95% 29.94 in 10.0 mi North 6.9 mph - N/A   Overcast
1:58 PM 46.4 °F 44.3 °F 45.1 °F 95% 29.91 in 10.0 mi Variable 4.6 mph - N/A   Overcast
2:04 PM 46.4 °F 44.3 °F 44.6 °F 93% 29.90 in 10.0 mi North 4.6 mph - N/A   Overcast
2:58 PM 47.1 °F - 45.9 °F 95% 29.91 in 10.0 mi North 4.6 mph - N/A   Overcast
3:02 PM 46.4 °F 44.3 °F 46.4 °F 100% 29.90 in 10.0 mi North 4.6 mph - N/A   Overcast
3:29 PM 48.2 °F - 46.4 °F 93% 29.89 in 10.0 mi North 8.1 mph - N/A   Overcast
3:58 PM 48.0 °F - 46.8 °F 95% 29.90 in 10.0 mi North 5.8 mph - N/A   Overcast
4:33 PM 48.2 °F - 46.4 °F 93% 29.88 in 10.0 mi NNE 2.3 mph - N/A   Overcast
4:58 PM 48.4 °F - 46.8 °F 94% 29.89 in 10.0 mi NNW 2.3 mph - N/A   Overcast
5:16 PM 48.2 °F - 46.4 °F 93% 29.87 in 10.0 mi NNW 2.3 mph - N/A   Overcast
5:58 PM 48.4 °F - 47.1 °F 95% 29.91 in 10.0 mi WNW 2.3 mph - N/A   Overcast
6:46 PM 48.2 °F - 46.4 °F 93% 29.90 in 8.0 mi NW 4.6 mph - N/A   Overcast
6:58 PM 48.2 °F - 48.2 °F 100% 29.92 in 6.0 mi NW 5.8 mph - N/A   Overcast
7:32 PM 48.2 °F - 48.2 °F 100% 29.93 in 9.0 mi NW 4.6 mph - N/A   Overcast
7:36 PM 48.2 °F - 48.2 °F 100% 29.92 in 10.0 mi Calm Calm - N/A Rain Light Rain
7:48 PM 48.2 °F - 46.4 °F 93% 29.89 in 10.0 mi East 3.5 mph - N/A Rain Light Rain
7:50 PM 48.2 °F - 46.4 °F 93% 29.89 in 9.0 mi East 4.6 mph - N/A Rain Light Rain
7:56 PM 48.2 °F - 48.2 °F 100% 29.86 in 7.0 mi ESE 9.2 mph - N/A Rain Light Rain
7:58 PM 48.2 °F - 48.2 °F 100% 29.87 in 6.0 mi ESE 9.2 mph - 0.00 in Rain Light Rain
8:11 PM 48.2 °F - 48.2 °F 100% 29.86 in 8.0 mi SE 3.5 mph - N/A   Overcast
8:13 PM 48.2 °F - 48.2 °F 100% 29.87 in 9.0 mi East 1.2 mph - N/A   Overcast
8:44 PM 48.2 °F - 48.2 °F 100% 29.86 in 9.0 mi NNE 3.5 mph - N/A   Overcast
8:51 PM 48.2 °F - 48.2 °F 100% 29.87 in 5.0 mi NE 2.3 mph - N/A   Overcast
8:58 PM 48.2 °F - 48.2 °F 100% 29.88 in 3.0 mi NNE 2.3 mph - 0.01 in   Overcast
8:59 PM 48.2 °F - 48.2 °F 100% 29.87 in 3.0 mi NNE 3.5 mph - N/A   Overcast
9:00 PM 48.2 °F - 48.2 °F 100% 29.87 in 2.5 mi NNE 3.5 mph - N/A   Overcast
9:09 PM 48.2 °F - 48.2 °F 100% 29.86 in 3.0 mi NE 2.3 mph - N/A   Overcast
9:10 PM 48.2 °F - 48.2 °F 100% 29.86 in 3.0 mi NE 2.3 mph - N/A   Overcast
9:29 PM 48.2 °F - 48.2 °F 100% 29.88 in 5.0 mi NNW 2.3 mph - N/A   Overcast
9:39 PM 48.2 °F - 48.2 °F 100% 29.89 in 10.0 mi North 5.8 mph - N/A   Overcast
9:58 PM 48.4 °F - 47.7 °F 97% 29.92 in 10.0 mi NNW 6.9 mph - N/A   Overcast
10:22 PM 48.2 °F - 48.2 °F 100% 29.91 in 9.0 mi NNW 6.9 mph - N/A   Overcast
10:58 PM 48.2 °F - 47.5 °F 97% 29.93 in 8.0 mi NW 6.9 mph - N/A   Overcast
11:03 PM 48.2 °F - 48.2 °F 100% 29.92 in 10.0 mi NW 6.9 mph - N/A   Overcast
11:08 PM 48.2 °F - 48.2 °F 100% 29.92 in 10.0 mi NW 5.8 mph - N/A   Overcast
11:22 PM 48.2 °F - 46.4 °F 93% 29.93 in 10.0 mi NW 5.8 mph - N/A   Overcast
11:46 PM 48.2 °F - 46.4 °F 93% 29.93 in 10.0 mi NW 5.8 mph - N/A   Overcast
11:58 PM 48.0 °F - 47.3 °F 97% 29.95 in 10.0 mi WNW 5.8 mph - N/A   Overcast